Find OneWeb SL0210

NORAD ID: 48787 Int'l Des: 2021-045 Owner: ONEWEBN Country: UK Constellation: oneweb operational
LEOCIRCULARPOLARONEWEB_TYPE

Live Position

Loading 3D Globe...

About OneWeb SL0210

Description loading...

Upcoming Passes

Passes for default location (London). Set your location on the main map for personalized predictions.

Altitude History

Loading altitude history...

Two-Line Element Set

1 48787U 21045W 26127.08112201 .00000134 00000-0 32311-3 0 9990
2 48787 87.8976 267.3761 0002472 81.8879 278.2532 13.15549084238911
Epoch: May 7, 2026 • Age: 12 hours

Current Status

Altitude 1206.7 km
Velocity 7.25 km/s
Sub-Earth Point -8.22°S, 14.38°E
Launch Date May 28, 2021
Age 4.9 years
Type internet

Technical Details

Classification Payload
Mass 148.00 kg
Dry Mass 140.00 kg
Total Mass 148.00 kg
Length 1.30 m
Diameter 1.00 m
Span 5.00 m
Shape Trapezoid+2 pan
Manufacturer ONEWUS
Bus Type ARROW
Phase Status In Orbit
Owner/State ONEWEBN/UK

Most Searched